Weather Roundup
Issued by NWS

Home | Current Version | Previous Version | Text Only | Print | Product List | Glossary On
Versions: 1 2 3 4 5 6 7 8 9 10 11 12 13 14 15 16 17 18 19 20 21 22 23 24 25 26 27 28 29 30 31 32 33 34 35 36 37 38 39 40 41 42 43 44 45 46 47 48 49 50
000
NZUS93 KARX 290010
HRRWXR

CURRENT HOURLY OBSERVATIONS ACROSS
MUCH OF THE UPPER MISSISSIPPI VALLEY
NATIONAL WEATHER SERVICE LA CROSSE WI
700 PM CDT SAT MAR 28 2015


...SOUTHEAST MINNESOTA...


CITY           SKY/WX    TMP DP  RH WIND       PRES   REMARKS
ROCHESTER      CLEAR     35  21  56 S14       30.11F WCI  26
ROCHESTER/MAYO FAIR      37  19  48 SE12      30.12F WCI  30
WINONA         CLEAR     37  19  48 S7        30.17F WCI  32
AUSTIN         CLEAR     39  21  48 S9        30.10S WCI  33
ALBERT LEA     CLEAR     43  21  42 S12G17    30.08S
DODGE CENTER   CLEAR     36  25  64 SE14      30.09F WCI  27
PRESTON        CLEAR     36  19  49 SE10      30.13F WCI  28
OWATONNA       CLEAR     39  25  56 S9        30.08F WCI  33
FARIBAULT      CLEAR     37  27  65 SE12      30.07F WCI  30
$$

...ELSEWHERE IN MINNESOTA...


CITY           SKY/WX    TMP DP  RH WIND       PRES   REMARKS
MINNEAPOLIS    PTCLDY    39  21  48 S16G24    30.08F WCI  30
INTNL FALLS    MOCLDY    42  16  34 VRB7G20   29.83F
DULUTH         PTCLDY    40  13  33 SW14      29.97F WCI  32
RED WING       CLEAR     37  18  44 S10       30.11F WCI  30
REDWOOD FALLS  CLEAR     46  28  49 S17G28    29.97F
MANKATO        CLEAR     43  25  49 S14G20    30.04F
WORTHINGTON    CLEAR     46  27  46 S21       29.98F
FAIRMONT       CLEAR     45  12  26 S16G23    30.02F
$$

...SOUTHWEST WISCONSIN...


CITY           SKY/WX    TMP DP  RH WIND       PRES   REMARKS
LA CROSSE      CLEAR     40  14  34 S12       30.18F WCI  33
PRAIRIE DU CHI CLEAR     39  11  31 SE10      30.19S WCI  32
BOSCOBEL       CLEAR     40  13  33 S6        30.20F
LONE ROCK      CLEAR     37  15  40 S7        30.22S WCI  32
PLATTEVILLE    CLEAR     37  16  42 SE10      30.21R WCI  29
FORT MC COY    CLEAR     37   9  32 S7        30.19S WCI  31
CAMP DOUGLAS   CLEAR     37  10  33 S7        30.17F WCI  32
VIROQUA        FAIR      35  17  46 S5        30.17F WCI  31
WIS DELLS      CLEAR     35  10  36 SW10      30.21S WCI  27
$$

...ELSEWHERE IN WISCONSIN...


CITY           SKY/WX    TMP DP  RH WIND       PRES   REMARKS
MILWAUKEE      CLEAR     30  12  47 S12       30.26F WCI  20
MADISON        PTCLDY    36  12  37 VRB5      30.22F WCI  32
GREEN BAY      CLEAR     36  17  46 S8        30.20F WCI  30
EAU CLAIRE     CLEAR     37   8  30 SW14      30.12F WCI  28
BLACK RVR FLS  FAIR      39   5  24 SW8       30.17R WCI  33
MEDFORD        CLEAR     35  15  43 SW10      30.10S WCI  28
WAUSAU         CLEAR     37   9  31 SW13      30.11F WCI  29
WIS RAPIDS     CLEAR     38   7  27 S12       30.17F WCI  30
MARSHFIELD     CLEAR     37  11  34 S13       30.13F WCI  29
RICE LAKE      CLEAR     38  11  32 S15       30.10F WCI  29
$$

...NORTHEAST IOWA...


CITY           SKY/WX    TMP DP  RH WIND       PRES   REMARKS
DECORAH        CLEAR     37  19  48 S7        30.15S WCI  32
MASON CITY     CLEAR     42  21  43 S17       30.11S
CHARLES CITY   CLEAR     39  19  45 S13G20    30.13F WCI  32
OELWEIN        CLEAR     39  16  38 S12       30.17F WCI  32
$$

...ELSEWHERE IN IOWA...


CITY           SKY/WX    TMP DP  RH WIND       PRES   REMARKS
DES MOINES     PTCLDY    48  19  31 S15       30.13S
IOWA CITY      CLEAR     40  13  33 SE12      30.22F WCI  33
FORT DODGE     CLEAR     46  19  34 S13G22    30.08F
$$

...NORTHERN ILLINOIS...


CITY           SKY/WX    TMP DP  RH WIND       PRES   REMARKS
CHICAGO-OHARE  CLEAR     31  10  41 SE9       30.28S WCI  23
CHICAGO-MIDWAY CLEAR     33   8  35 E8        30.30S WCI  26
MOLINE         CLEAR     39  10  30 S9        30.23F WCI  33
ROCKFORD       CLEAR     37  12  35 S8        30.26F WCI  31
PEORIA         CLEAR     40  14  34 S9        30.27S WCI  34
$$

NOTE: "FAIR" INDICATES FEW OR NO CLOUDS BELOW 12,000 FEET WITH NO
SIGNIFICANT WEATHER AND/OR OBSTRUCTIONS TO VISIBILITY. WIND
SPEEDS ARE IN MILES-PER-HOUR.



USA.gov is the U.S. government's official web portal to all federal, state and local government web resources and services.